Location: Sternwarte ZA, Rosenfeld-Brittheim
(48.2889°N, 8.6789°E)
Time: 03:55:15
(UTC+02:00)

ISS - Pass Details

Date: 25 May 2017
Orbit: 401 x 408 km, 51.6° (Epoch: 25 June)

Event Time Altitude Azimuth Distance (km) Brightness Sun altitude
Rises 04:13:14 0° 290° (WNW) 2,335 -0.2 -10.9°
Reaches altitude 10° 04:15:25 10° 282° (WNW) 1,470 -1.3 -10.7°
Maximum altitude 04:18:29 37° 214° (SW) 655 -3.3 -10.3°
Drops below altitude 10° 04:21:31 10° 145° (SE) 1,457 -1.1 -10.0°
Sets 04:23:40 0° 137° (SE) 2,312 0.0 -9.8°
